Погода в Полигусе

Россия / Красноярский край     61°59′23″N   94°39′25″E
темп.,
°C
ветер,
м/с
пор.,
м/с
влажн.,
%
обл.,
%
осадки,
мм/ч
давл.,
гПа
погр.,
м
18 апреля, вс
вс1801:00−12ююв2693100 0.1 1016203
04:00−12ююв2495100 0.1 1016128
07:00−9ююв2788100 0.1 1014423
10:00−6ююв3883100 0.4 1012922
13:00−3ю4967100 0.9 10101478
16:00−3ююв51073100 0.2 10091336
19:00−4юв41083100 0.4 1008978
22:00−5юв41189100 0.1 1006638
19 апреля, пн
пн1901:00−6з1197100 2.6 100464
04:00−13юз1199100 0.5 100612
07:00−11ссв1290100 0.5 1005131
10:00−8ссв2490100 0.8 1001326
13:00−1в3680100 1.7 996886
16:00+1в4977100 0.6 9941254
19:00−1в3992100 1.1 995752
22:00−2св41190100 0.6 995679
20 апреля, вт
вт2001:00−3св31092100 1.0 996572
04:00−4ссв2790100 1.1 997505
07:00−5с3990100 1.6 999739
10:00−3ссв4776100 0.3 10011135
13:00−3с4675100 0.5 10031218
16:00−3с3676100 0.4 10061058
19:00−3с3679100 0.8 1008787
22:00−8ссз1197100 0.1 101223
21 апреля, ср
ср2101:00−10с1297100 0.3 101439
04:00−11ссв129787 0.2 101735
07:00−9ссв129091 0.2 1020130
10:00−4св1274100 0.0 1021899
13:00−2ссв1170100 0.2 10231014
16:00−1св1268100 0.4 1024978
19:00−3всв247691 0.8 1026110
22:00−10всв119638 0.0 103011
22 апреля, чт
чт2201:00−13всв119712 0.0 103311
04:00−14всв119822 0.0 103511
07:00−9юз00875 0.0 103688
10:00−3з117519 0.0 1036453
13:00−1з2363100 0.1 10361299
16:000зсз346397 0.1 10371171
19:00−1сз267224 0.2 1039209
22:00−7зсз119659 0.0 104210